Back to catalog

FENGYUN 1C DEB

AlivePO
NORAD 30553·DEBRIS·🇨🇳 China

Launched May 10, 1999 from Taiyuan Satellite Launch Center

Loading…

Next Passes (next 24 hours)

TLE

FreshSource: Space-Track

Epoch: Sep 14, 2026, 07:43 UTC

1 30553U 99025AKT 26257.32181162  .00011974  00000-0  14737-2 0  9993
2 30553  99.1347  33.7769 0015932   5.0599 355.0769 14.83072821 25327

Track FENGYUN 1C DEB in real time with AllMySat

Download on the App Store